Location: Newark
(49.8969°N, 3.3422°E)
Time: 19:36:58
(UTC+00:00)

Envisat - Pass Details

Date: 15 December 2019
Orbit: 764 x 766 km, 98.1° (Epoch: 28 January)

Event Time Altitude Azimuth Distance (km) Brightness Sun altitude
Rises 06:31:54 0° 15° (NNE) 3,247 6.2 -10.0°
Reaches altitude 10° 06:34:14 10° 19° (NNE) 2,316 5.4 -9.6°
Maximum altitude 06:39:20 68° 102° (ESE) 827 3.5 -8.9°
Drops below altitude 10° 06:44:22 10° 186° (S) 2,297 5.8 -8.1°
Sets 06:46:41 0° 188° (S) 3,219 6.5 -7.8°
